Time,TemperatureF,DewpointF,PressureIn,WindDirection,WindDirectionDegrees,WindSpeedMPH,WindSpeedGustMPH,Humidity,HourlyPrecipIn,Conditions,Clouds,dailyrainin,SolarRadiationWatts/m^2,SoftwareType,DateUTC
2013-06-17 00:02:00,43.0,37.0,-100.00,West,281,0.0,5.0,80,0.00,,,0.00,0.000000,,2013-06-17 06:02:00,
2013-06-17 00:12:00,43.0,37.0,-100.00,West,281,0.0,5.0,80,0.00,,,0.00,0.000000,,2013-06-17 06:12:00,
2013-06-17 00:22:00,43.0,37.0,-100.00,West,281,0.0,5.0,80,0.00,,,0.00,0.000000,,2013-06-17 06:22:00,
2013-06-17 00:33:00,43.0,37.0,-100.00,West,281,0.0,5.0,80,0.00,,,0.00,0.000000,,2013-06-17 06:33:00,
2013-06-17 00:40:00,43.0,37.0,-100.00,WSW,248,1.0,4.0,79,0.00,,,0.00,0.000000,,2013-06-17 06:40:00,
2013-06-17 01:02:00,43.0,37.0,-100.00,WSW,248,1.0,4.0,79,0.00,,,0.00,0.000000,,2013-06-17 07:02:00,
2013-06-17 01:12:00,43.0,37.0,-100.00,WSW,248,1.0,4.0,79,0.00,,,0.00,0.000000,,2013-06-17 07:12:00,
2013-06-17 01:22:00,43.0,37.0,-100.00,WSW,248,1.0,4.0,79,0.00,,,0.00,0.000000,,2013-06-17 07:22:00,
2013-06-17 01:33:00,43.0,37.0,-100.00,WSW,248,1.0,4.0,79,0.00,,,0.00,0.000000,,2013-06-17 07:33:00,
2013-06-17 01:40:00,46.0,35.0,-100.00,South,184,4.0,9.0,64,0.00,,,0.00,0.000000,,2013-06-17 07:40:00,
2013-06-17 02:01:00,46.0,35.0,-100.00,South,184,4.0,9.0,64,0.00,,,0.00,0.000000,,2013-06-17 08:01:00,
2013-06-17 02:11:00,46.0,35.0,-100.00,South,184,4.0,9.0,64,0.00,,,0.00,0.000000,,2013-06-17 08:11:00,
2013-06-17 02:22:00,46.0,35.0,-100.00,South,184,4.0,9.0,64,0.00,,,0.00,0.000000,,2013-06-17 08:22:00,
2013-06-17 02:33:00,46.0,35.0,-100.00,South,184,4.0,9.0,64,0.00,,,0.00,0.000000,,2013-06-17 08:33:00,
2013-06-17 02:40:00,47.0,37.0,-100.00,SSE,154,4.0,8.0,67,0.00,,,0.00,0.000000,,2013-06-17 08:40:00,
2013-06-17 03:02:00,47.0,37.0,-100.00,SSE,154,4.0,8.0,67,0.00,,,0.00,0.000000,,2013-06-17 09:02:00,
2013-06-17 03:11:00,47.0,37.0,-100.00,SSE,154,4.0,8.0,67,0.00,,,0.00,0.000000,,2013-06-17 09:11:00,
2013-06-17 03:22:00,47.0,37.0,-100.00,SSE,154,4.0,8.0,67,0.00,,,0.00,0.000000,,2013-06-17 09:22:00,
2013-06-17 03:34:00,47.0,37.0,-100.00,SSE,154,4.0,8.0,67,0.00,,,0.00,0.000000,,2013-06-17 09:34:00,
2013-06-17 03:40:00,46.0,33.0,-100.00,SSW,193,5.0,12.0,61,0.00,,,0.00,0.000000,,2013-06-17 09:40:00,
2013-06-17 04:02:00,46.0,33.0,-100.00,SSW,193,5.0,12.0,61,0.00,,,0.00,0.000000,,2013-06-17 10:02:00,
2013-06-17 04:12:00,46.0,33.0,-100.00,SSW,193,5.0,12.0,61,0.00,,,0.00,0.000000,,2013-06-17 10:12:00,
2013-06-17 04:22:00,46.0,33.0,-100.00,SSW,193,5.0,12.0,61,0.00,,,0.00,0.000000,,2013-06-17 10:22:00,
2013-06-17 04:33:00,46.0,33.0,-100.00,SSW,193,5.0,12.0,61,0.00,,,0.00,0.000000,,2013-06-17 10:33:00,
2013-06-17 04:40:00,45.0,35.0,-100.00,South,181,1.0,10.0,69,0.00,,,0.00,0.000000,,2013-06-17 10:40:00,
2013-06-17 05:02:00,45.0,35.0,-100.00,South,181,1.0,10.0,69,0.00,,,0.00,0.000000,,2013-06-17 11:02:00,
2013-06-17 05:12:00,45.0,35.0,-100.00,South,181,1.0,10.0,69,0.00,,,0.00,0.000000,,2013-06-17 11:12:00,
2013-06-17 05:23:00,45.0,35.0,-100.00,South,181,1.0,10.0,69,0.00,,,0.00,0.000000,,2013-06-17 11:23:00,
2013-06-17 05:33:00,45.0,35.0,-100.00,South,181,1.0,10.0,69,0.00,,,0.00,0.000000,,2013-06-17 11:33:00,
2013-06-17 05:40:00,46.0,36.0,-100.00,WNW,291,5.0,15.0,67,0.00,,,0.00,1.000000,,2013-06-17 11:40:00,
2013-06-17 06:02:00,46.0,36.0,-100.00,WNW,291,5.0,15.0,67,0.00,,,0.00,1.000000,,2013-06-17 12:02:00,
2013-06-17 06:12:00,46.0,36.0,-100.00,WNW,291,5.0,15.0,67,0.00,,,0.00,1.000000,,2013-06-17 12:12:00,
2013-06-17 06:22:00,46.0,36.0,-100.00,WNW,291,5.0,15.0,67,0.00,,,0.00,1.000000,,2013-06-17 12:22:00,
2013-06-17 06:33:00,46.0,36.0,-100.00,WNW,291,5.0,15.0,67,0.00,,,0.00,1.000000,,2013-06-17 12:33:00,
2013-06-17 06:40:00,46.0,37.0,-100.00,ENE,60,0.0,5.0,72,0.00,,,0.00,47.000000,,2013-06-17 12:40:00,
2013-06-17 07:01:00,46.0,37.0,-100.00,ENE,60,0.0,5.0,72,0.00,,,0.00,47.000000,,2013-06-17 13:01:00,
2013-06-17 07:12:00,46.0,37.0,-100.00,ENE,60,0.0,5.0,72,0.00,,,0.00,47.000000,,2013-06-17 13:12:00,
2013-06-17 07:22:00,46.0,37.0,-100.00,ENE,60,0.0,5.0,72,0.00,,,0.00,47.000000,,2013-06-17 13:22:00,
2013-06-17 07:32:00,46.0,37.0,-100.00,ENE,60,0.0,5.0,72,0.00,,,0.00,47.000000,,2013-06-17 13:32:00,
2013-06-17 09:40:00,59.0,42.0,-100.00,NE,45,3.0,8.0,54,0.00,,,0.00,694.000000,,2013-06-17 15:40:00,
2013-06-17 10:02:00,59.0,42.0,-100.00,NE,45,3.0,8.0,54,0.00,,,0.00,694.000000,,2013-06-17 16:02:00,
2013-06-17 10:12:00,59.0,42.0,-100.00,NE,45,3.0,8.0,54,0.00,,,0.00,694.000000,,2013-06-17 16:12:00,
2013-06-17 10:22:00,59.0,42.0,-100.00,NE,45,3.0,8.0,54,0.00,,,0.00,694.000000,,2013-06-17 16:22:00,
2013-06-17 10:33:00,59.0,42.0,-100.00,NE,45,3.0,8.0,54,0.00,,,0.00,694.000000,,2013-06-17 16:33:00,
2013-06-17 10:40:00,59.0,41.0,-100.00,East,79,4.0,9.0,52,0.00,,,0.00,881.000000,,2013-06-17 16:40:00,
2013-06-17 11:02:00,59.0,41.0,-100.00,East,79,4.0,9.0,52,0.00,,,0.00,881.000000,,2013-06-17 17:02:00,
2013-06-17 11:12:00,59.0,41.0,-100.00,East,79,4.0,9.0,52,0.00,,,0.00,881.000000,,2013-06-17 17:12:00,
2013-06-17 11:22:00,59.0,41.0,-100.00,East,79,4.0,9.0,52,0.00,,,0.00,881.000000,,2013-06-17 17:22:00,
2013-06-17 11:33:00,59.0,41.0,-100.00,East,79,4.0,9.0,52,0.00,,,0.00,881.000000,,2013-06-17 17:33:00,
2013-06-17 11:40:00,59.0,40.0,-100.00,East,85,5.0,10.0,50,0.00,,,0.00,1030.000000,,2013-06-17 17:40:00,
2013-06-17 12:02:00,59.0,40.0,-100.00,East,85,5.0,10.0,50,0.00,,,0.00,1030.000000,,2013-06-17 18:02:00,
2013-06-17 12:12:00,59.0,40.0,-100.00,East,85,5.0,10.0,50,0.00,,,0.00,1030.000000,,2013-06-17 18:12:00,
2013-06-17 12:23:00,59.0,40.0,-100.00,East,85,5.0,10.0,50,0.00,,,0.00,1030.000000,,2013-06-17 18:23:00,
2013-06-17 12:33:00,59.0,40.0,-100.00,East,85,5.0,10.0,50,0.00,,,0.00,1030.000000,,2013-06-17 18:33:00,
2013-06-17 12:40:00,62.0,42.0,-100.00,SSE,161,4.0,10.0,47,0.00,,,0.00,1128.000000,,2013-06-17 18:40:00,
2013-06-17 13:02:00,62.0,42.0,-100.00,SSE,161,4.0,10.0,47,0.00,,,0.00,1128.000000,,2013-06-17 19:02:00,
2013-06-17 13:11:00,62.0,42.0,-100.00,SSE,161,4.0,10.0,47,0.00,,,0.00,1128.000000,,2013-06-17 19:11:00,
2013-06-17 13:22:00,62.0,42.0,-100.00,SSE,161,4.0,10.0,47,0.00,,,0.00,1128.000000,,2013-06-17 19:22:00,
2013-06-17 13:33:00,62.0,42.0,-100.00,SSE,161,4.0,10.0,47,0.00,,,0.00,1128.000000,,2013-06-17 19:33:00,
2013-06-17 13:40:00,64.0,42.0,-100.00,SSE,153,4.0,10.0,45,0.00,,,0.00,1159.000000,,2013-06-17 19:40:00,
2013-06-17 14:02:00,64.0,42.0,-100.00,SSE,153,4.0,10.0,45,0.00,,,0.00,1159.000000,,2013-06-17 20:02:00,
2013-06-17 14:11:00,64.0,42.0,-100.00,SSE,153,4.0,10.0,45,0.00,,,0.00,1159.000000,,2013-06-17 20:11:00,
2013-06-17 14:22:00,64.0,42.0,-100.00,SSE,153,4.0,10.0,45,0.00,,,0.00,1159.000000,,2013-06-17 20:22:00,
2013-06-17 14:34:00,64.0,42.0,-100.00,SSE,153,4.0,10.0,45,0.00,,,0.00,1159.000000,,2013-06-17 20:34:00,
2013-06-17 16:40:00,67.0,41.0,-100.00,West,276,4.0,12.0,39,0.00,,,0.00,789.000000,,2013-06-17 22:40:00,
2013-06-17 17:02:00,67.0,41.0,-100.00,West,276,4.0,12.0,39,0.00,,,0.00,789.000000,,2013-06-17 23:02:00,
2013-06-17 17:11:00,67.0,41.0,-100.00,West,276,4.0,12.0,39,0.00,,,0.00,789.000000,,2013-06-17 23:11:00,
2013-06-17 17:22:00,67.0,41.0,-100.00,West,276,4.0,12.0,39,0.00,,,0.00,789.000000,,2013-06-17 23:22:00,
2013-06-17 17:32:00,67.0,41.0,-100.00,West,276,4.0,12.0,39,0.00,,,0.00,789.000000,,2013-06-17 23:32:00,
2013-06-17 17:40:00,62.0,40.0,-100.00,NE,48,3.0,12.0,45,0.00,,,0.00,496.000000,,2013-06-17 23:40:00,
2013-06-17 18:01:00,62.0,40.0,-100.00,NE,48,3.0,12.0,45,0.00,,,0.00,496.000000,,2013-06-18 00:01:00,
2013-06-17 18:12:00,62.0,40.0,-100.00,NE,48,3.0,12.0,45,0.00,,,0.00,496.000000,,2013-06-18 00:12:00,
2013-06-17 18:22:00,62.0,40.0,-100.00,NE,48,3.0,12.0,45,0.00,,,0.00,496.000000,,2013-06-18 00:22:00,
2013-06-17 18:33:00,62.0,40.0,-100.00,NE,48,3.0,12.0,45,0.00,,,0.00,496.000000,,2013-06-18 00:33:00,
2013-06-17 18:40:00,61.0,38.0,-100.00,ENE,64,5.0,10.0,42,0.00,,,0.00,358.000000,,2013-06-18 00:40:00,
2013-06-17 19:01:00,61.0,38.0,-100.00,ENE,64,5.0,10.0,42,0.00,,,0.00,358.000000,,2013-06-18 01:01:00,
2013-06-17 19:11:00,61.0,38.0,-100.00,ENE,64,5.0,10.0,42,0.00,,,0.00,358.000000,,2013-06-18 01:11:00,
2013-06-17 19:23:00,61.0,38.0,-100.00,ENE,64,5.0,10.0,42,0.00,,,0.00,358.000000,,2013-06-18 01:23:00,
2013-06-17 19:34:00,61.0,38.0,-100.00,ENE,64,5.0,10.0,42,0.00,,,0.00,358.000000,,2013-06-18 01:34:00,
2013-06-17 19:40:00,59.0,36.0,-100.00,NE,52,3.0,9.0,42,0.00,,,0.00,195.000000,,2013-06-18 01:40:00,
2013-06-17 20:02:00,59.0,36.0,-100.00,NE,52,3.0,9.0,42,0.00,,,0.00,195.000000,,2013-06-18 02:02:00,
2013-06-17 20:11:00,59.0,36.0,-100.00,NE,52,3.0,9.0,42,0.00,,,0.00,195.000000,,2013-06-18 02:11:00,
2013-06-17 20:22:00,59.0,36.0,-100.00,NE,52,3.0,9.0,42,0.00,,,0.00,195.000000,,2013-06-18 02:22:00,
2013-06-17 20:34:00,59.0,36.0,-100.00,NE,52,3.0,9.0,42,0.00,,,0.00,195.000000,,2013-06-18 02:34:00,
2013-06-17 20:40:00,56.0,35.0,-100.00,SSE,148,2.0,9.0,45,0.00,,,0.00,24.000000,,2013-06-18 02:40:00,
2013-06-17 21:02:00,56.0,35.0,-100.00,SSE,148,2.0,9.0,45,0.00,,,0.00,24.000000,,2013-06-18 03:02:00,
2013-06-17 21:12:00,56.0,35.0,-100.00,SSE,148,2.0,9.0,45,0.00,,,0.00,24.000000,,2013-06-18 03:12:00,
2013-06-17 21:23:00,56.0,35.0,-100.00,SSE,148,2.0,9.0,45,0.00,,,0.00,24.000000,,2013-06-18 03:23:00,
2013-06-17 21:34:00,56.0,35.0,-100.00,SSE,148,2.0,9.0,45,0.00,,,0.00,24.000000,,2013-06-18 03:34:00,
2013-06-17 21:40:00,53.0,34.0,-100.00,SE,137,1.0,9.0,48,0.00,,,0.00,4.000000,,2013-06-18 03:40:00,
2013-06-17 22:02:00,53.0,34.0,-100.00,SE,137,1.0,9.0,48,0.00,,,0.00,4.000000,,2013-06-18 04:02:00,
2013-06-17 22:12:00,53.0,34.0,-100.00,SE,137,1.0,9.0,48,0.00,,,0.00,4.000000,,2013-06-18 04:12:00,
2013-06-17 22:22:00,53.0,34.0,-100.00,SE,137,1.0,9.0,48,0.00,,,0.00,4.000000,,2013-06-18 04:22:00,
2013-06-17 22:34:00,53.0,34.0,-100.00,SE,137,1.0,9.0,48,0.00,,,0.00,4.000000,,2013-06-18 04:34:00,
2013-06-17 22:40:00,53.0,31.0,-100.00,South,184,6.0,10.0,43,0.00,,,0.00,0.000000,,2013-06-18 04:40:00,
2013-06-17 23:02:00,53.0,31.0,-100.00,South,184,6.0,10.0,43,0.00,,,0.00,0.000000,,2013-06-18 05:02:00,
2013-06-17 23:12:00,53.0,31.0,-100.00,South,184,6.0,10.0,43,0.00,,,0.00,0.000000,,2013-06-18 05:12:00,
2013-06-17 23:22:00,53.0,31.0,-100.00,South,184,6.0,10.0,43,0.00,,,0.00,0.000000,,2013-06-18 05:22:00,
2013-06-17 23:33:00,53.0,31.0,-100.00,South,184,6.0,10.0,43,0.00,,,0.00,0.000000,,2013-06-18 05:33:00,
2013-06-17 23:40:00,54.0,34.0,-100.00,South,174,8.0,12.0,46,0.00,,,0.00,0.000000,,2013-06-18 05:40:00,